Waarnemingen

Advertentie
Mijn weer
Oostende Airport, België (6407): temperatuur & dauwpunt: 07.12.2018 15:00:00 - 13.12.2018 15:00:00 (CET)Oostende Airport, België (6407): windsnelheid & windstoten: 07.12.2018 15:00:00 - 13.12.2018 15:00:00 (CET)Oostende Airport, België (6407): windrichting: 07.12.2018 15:00:00 - 13.12.2018 15:00:00 (CET)Oostende Airport, België (6407): luchtdruk: 07.12.2018 15:00:00 - 13.12.2018 15:00:00 (CET)Oostende Airport, België (6407): zicht: 07.12.2018 15:00:00 - 13.12.2018 15:00:00 (CET)
Datum & Tijd tt [°C] td [°C] ff [km/u] ff [kn] fx [km/u] fx [kn] dd ppp [hPa] vv [km]
13.12.2018 15:00:00 3,0 -2,8 21 11 32 18 O 1018,7 10
13.12.2018 14:00:00 3,4 -1,7 26 14 32 18 O 1019,0 10
13.12.2018 13:00:00 2,9 -0,7 22 12 - - O 1019,2 10
13.12.2018 12:00:00 2,2 -0,4 22 12 29 16 O 1019,8 10
13.12.2018 11:00:00 1,3 -1,0 22 12 29 16 O 1019,9 10
13.12.2018 10:00:00 0,4 -1,4 22 12 - - O 1019,8 10
13.12.2018 09:00:00 -0,2 -2,1 18 10 25 14 O 1019,7 10
13.12.2018 08:00:00 -0,4 -2,3 18 10 29 16 O 1019,6 10
13.12.2018 07:00:00 -0,5 -2,5 21 11 - - O 1019,6 10
13.12.2018 06:00:00 -0,8 -2,7 15 8 22 12 O 1020,0 10
13.12.2018 05:00:00 -0,8 -2,7 15 8 18 10 O 1020,5 10
13.12.2018 04:00:00 -0,8 -2,4 16 9 - - O 1021,1 10
13.12.2018 03:00:00 -0,1 -1,7 18 10 25 14 O 1021,2 8
13.12.2018 02:00:00 -0,3 -1,8 15 8 22 12 O 1021,4 6
13.12.2018 01:00:00 -0,2 -1,7 15 8 - - O 1021,9 4,5
13.12.2018 00:00:00 -0,5 -1,9 15 8 22 12 O 1022,4 4,0
12.12.2018 23:00:00 -0,2 -1,4 13 7 14 8 O 1022,7 4,0
12.12.2018 22:00:00 0,1 -1,3 13 7 - - O 1023,3 4,5
12.12.2018 21:00:00 0,9 -0,4 15 8 25 14 O 1023,5 5
12.12.2018 20:00:00 1,9 0,1 18 10 22 12 O 1023,5 10
12.12.2018 19:00:00 2,2 0,6 16 9 - - O 1023,7 10
12.12.2018 18:00:00 2,0 -0,1 15 8 14 8 ONO 1024,1 10
12.12.2018 17:00:00 2,9 -0,9 9 5 14 8 O 1024,3 10
12.12.2018 16:00:00 4,8 0,3 11 6 - - O 1024,3 10
12.12.2018 15:00:00 6,0 1,0 15 8 22 12 O 1024,5 10
12.12.2018 14:00:00 6,2 1,6 13 7 22 12 O 1024,9 10
12.12.2018 13:00:00 5,9 2,2 15 8 - - O 1025,4 10
12.12.2018 12:00:00 5,1 1,2 9 5 11 6 OZO 1025,9 10
12.12.2018 11:00:00 2,5 0,6 8 4 11 6 O 1026,1 9
12.12.2018 10:00:00 0,2 -1,3 8 4 - - O 1026,0 9
12.12.2018 09:00:00 -2,1 -2,7 9 5 14 8 O 1025,7 8
12.12.2018 08:00:00 -1,4 -2,3 5 3 14 8 OZO 1025,6 7
12.12.2018 07:00:00 -0,2 -1,2 9 5 - - O 1025,3 7
12.12.2018 06:00:00 0,1 -0,4 4 2 7 4 OZO 1025,1 6
12.12.2018 05:00:00 1,8 0,8 4 2 7 4 ZZO 1025,4 7
12.12.2018 04:00:00 2,8 1,4 8 4 - - ZZO 1025,6 10
12.12.2018 03:00:00 3,3 1,9 4 2 7 4 ZO 1025,6 10
12.12.2018 02:00:00 3,2 1,6 4 2 7 4 ZO 1025,4 10
12.12.2018 01:00:00 3,2 1,5 5 3 - - OZO 1025,4 10
12.12.2018 00:00:00 3,4 1,7 8 4 11 6 ZO 1025,6 10
11.12.2018 23:00:00 3,2 1,3 9 5 11 6 OZO 1025,5 10
11.12.2018 22:00:00 2,5 1,3 8 4 - - ZO 1025,4 10
11.12.2018 21:00:00 2,3 1,2 4 2 7 4 ZZO 1025,5 10
11.12.2018 20:00:00 4,0 2,4 5 3 11 6 ZZW 1025,7 10
11.12.2018 19:00:00 4,5 2,4 9 5 - - ZZW 1025,5 10
11.12.2018 18:00:00 4,6 1,7 8 4 11 6 Z 1025,3 10
11.12.2018 17:00:00 6,5 1,9 8 4 11 6 W 1025,3 10
11.12.2018 16:00:00 8,0 2,0 5 3 - - W 1025,5 10
11.12.2018 15:00:00 7,3 2,8 8 4 14 8 WNW 1025,5 10
11.12.2018 14:00:00 7,8 1,9 8 4 11 6 W 1025,8 10
11.12.2018 13:00:00 7,4 0,2 5 3 - - NNW 1026,2 10
11.12.2018 12:00:00 8,0 0,0 9 5 22 12 NW 1026,6 10
11.12.2018 11:00:00 7,1 1,2 9 5 18 10 NW 1026,6 10
11.12.2018 10:00:00 7,0 1,7 9 5 - - NW 1026,5 10
11.12.2018 09:00:00 5,2 0,8 9 5 18 10 NW 1026,4 10
11.12.2018 08:00:00 5,2 0,1 11 6 25 14 NNW 1026,2 10
11.12.2018 07:00:00 6,3 0,7 13 7 - - NW 1026,2 10
11.12.2018 06:00:00 6,9 1,1 13 7 22 12 NW 1026,4 10
11.12.2018 05:00:00 7,0 1,4 13 7 22 12 NW 1026,6 10
11.12.2018 04:00:00 6,5 0,3 16 9 - - NW 1026,7 10
11.12.2018 03:00:00 6,5 0,7 13 7 22 12 NW 1027,0 10
11.12.2018 02:00:00 6,5 0,5 16 9 25 14 NNW 1027,2 10
11.12.2018 01:00:00 6,5 0,9 15 8 - - NW 1027,2 10
11.12.2018 00:00:00 6,7 1,7 16 9 25 14 NNW 1027,0 10
10.12.2018 23:00:00 6,9 1,8 18 10 29 16 NNW 1027,0 10
10.12.2018 22:00:00 7,2 2,1 21 11 - - NNW 1026,9 10
10.12.2018 21:00:00 7,1 0,9 22 12 32 18 NNW 1026,8 10
10.12.2018 20:00:00 7,2 0,6 22 12 32 18 NNW 1026,8 10
10.12.2018 19:00:00 7,5 1,0 26 14 - - NNW 1027,0 10
10.12.2018 18:00:00 7,4 1,6 26 14 40 21 NNW 1026,7 10
10.12.2018 17:00:00 7,8 1,9 29 16 43 23 NNW 1026,6 10
10.12.2018 16:00:00 8,1 2,6 28 15 - - NNW 1026,2 10
10.12.2018 15:00:00 8,5 3,4 26 14 36 19 NW 1026,0 10
10.12.2018 14:00:00 8,3 3,2 26 14 43 23 NW 1025,8 10
10.12.2018 13:00:00 8,5 3,5 29 16 - - NW 1025,8 10
10.12.2018 12:00:00 8,3 3,6 29 16 43 23 NW 1025,9 10
10.12.2018 11:00:00 8,2 3,5 26 14 43 23 NW 1025,6 10
10.12.2018 10:00:00 7,9 3,9 28 15 - - WNW 1025,0 10
10.12.2018 09:00:00 7,7 3,6 26 14 40 21 NW 1024,5 10
10.12.2018 08:00:00 7,7 3,4 26 14 40 21 NW 1024,1 10
10.12.2018 07:00:00 7,8 3,4 28 15 - - NW 1023,4 10
10.12.2018 06:00:00 8,0 3,6 26 14 43 23 NW 1022,9 10
10.12.2018 05:00:00 8,2 3,4 26 14 43 23 WNW 1022,5 10
10.12.2018 04:00:00 7,8 2,4 28 15 - - NW 1022,1 10
10.12.2018 03:00:00 7,8 2,4 29 16 43 23 WNW 1021,7 10
10.12.2018 02:00:00 7,7 2,3 28 15 43 23 NW 1021,2 10
10.12.2018 01:00:00 8,2 3,4 31 17 - - NW 1020,8 10
10.12.2018 00:00:00 8,1 3,1 29 16 47 25 NW 1020,1 10
09.12.2018 23:00:00 8,5 2,7 31 17 47 25 NW 1019,1 10
09.12.2018 22:00:00 8,7 2,3 31 17 - - NW 1018,4 10
09.12.2018 21:00:00 8,6 2,7 35 19 50 27 NW 1017,7 10
09.12.2018 20:00:00 8,6 1,3 35 19 61 33 NW 1016,3 10
09.12.2018 19:00:00 8,8 2,3 39 21 - - NW 1015,3 10
09.12.2018 18:00:00 8,8 1,8 37 20 58 31 NW 1013,7 10
09.12.2018 17:00:00 8,9 3,7 35 19 54 29 NW 1012,0 10
09.12.2018 16:00:00 9,1 3,9 35 19 - - NW 1010,6 10
09.12.2018 15:00:00 9,5 4,8 34 18 54 29 NW 1008,8 10
09.12.2018 14:00:00 9,7 5,2 34 18 54 29 NW 1007,0 10
09.12.2018 13:00:00 10,0 6,3 34 18 - - NW 1005,4 10
09.12.2018 12:00:00 9,9 6,3 39 21 61 33 WNW 1004,0 10
09.12.2018 11:00:00 9,9 6,1 44 24 65 35 WNW 1002,6 10
09.12.2018 10:00:00 9,8 6,2 54 29 - - W 1001,6 15
09.12.2018 09:00:00 10,2 6,0 44 24 65 35 W 1000,8 10
09.12.2018 08:00:00 9,5 6,0 44 24 68 37 W 1000,1 10
09.12.2018 07:00:00 9,6 5,6 46 25 - - W 1000,1 10
09.12.2018 06:00:00 9,5 5,3 52 28 72 39 W 999,8 10
09.12.2018 05:00:00 9,5 5,2 52 28 72 39 W 999,6 10
09.12.2018 04:00:00 9,6 5,0 48 26 - - W 999,3 10
09.12.2018 03:00:00 9,6 5,5 48 26 79 43 W 998,9 10
09.12.2018 02:00:00 9,8 5,8 55 30 79 43 W 998,4 10
09.12.2018 01:00:00 9,9 5,8 46 25 - - W 998,4 10
09.12.2018 00:00:00 9,7 5,6 50 27 72 39 W 998,5 10
08.12.2018 23:00:00 10,2 6,3 50 27 68 37 W 997,8 10
08.12.2018 22:00:00 10,5 7,3 42 23 - - WZW 997,5 10
08.12.2018 21:00:00 10,7 7,9 41 22 65 35 WZW 997,6 10
08.12.2018 20:00:00 11,3 8,9 41 22 72 39 WZW 997,6 10
08.12.2018 19:00:00 10,4 8,9 29 16 - - ZW 998,3 8
08.12.2018 18:00:00 9,6 8,2 37 20 50 27 ZW 1000,2 4,0
08.12.2018 17:00:00 11,0 8,8 31 17 50 27 ZW 1001,8 10
08.12.2018 16:00:00 11,1 7,4 26 14 - - WZW 1003,4 10
08.12.2018 15:00:00 10,8 6,9 44 24 68 37 WZW 1004,4 10
08.12.2018 14:00:00 10,5 6,0 39 21 68 37 WZW 1005,1 10
08.12.2018 13:00:00 10,4 5,2 48 26 - - W 1005,7 10
08.12.2018 12:00:00 10,4 5,4 52 28 72 39 W 1005,9 10
08.12.2018 11:00:00 10,3 4,9 50 27 72 39 W 1005,8 10
08.12.2018 10:00:00 10,0 5,1 46 25 - - W 1005,6 10
08.12.2018 09:00:00 10,0 4,9 48 26 83 45 W 1005,3 10
08.12.2018 08:00:00 9,8 5,1 48 26 76 41 WZW 1004,8 10
08.12.2018 07:00:00 9,3 5,0 42 23 - - WZW 1004,8 10
08.12.2018 06:00:00 9,3 4,8 48 26 76 41 WZW 1004,7 10
08.12.2018 05:00:00 9,3 4,7 41 22 72 39 WZW 1005,1 10
08.12.2018 04:00:00 9,5 4,9 41 22 - - WZW 1005,4 10
08.12.2018 03:00:00 9,4 4,5 44 24 68 37 WZW 1005,6 10
08.12.2018 02:00:00 9,1 4,3 46 25 72 39 WZW 1006,1 10
08.12.2018 01:00:00 8,5 4,0 46 25 - - WZW 1006,5 10
08.12.2018 00:00:00 8,1 2,9 44 24 61 33 W 1006,5 10
07.12.2018 23:00:00 7,8 3,4 46 25 61 33 W 1006,3 10
07.12.2018 22:00:00 8,2 3,5 42 23 - - W 1005,8 10
07.12.2018 21:00:00 8,0 3,6 42 23 61 33 W 1005,4 10
07.12.2018 20:00:00 8,3 4,2 46 25 68 37 W 1004,5 10
07.12.2018 19:00:00 9,0 4,6 35 19 - - W 1003,3 10
07.12.2018 18:00:00 9,1 4,7 42 23 61 33 W 1002,2 10
07.12.2018 17:00:00 8,8 6,4 34 18 54 29 W 1001,2 10
07.12.2018 16:00:00 9,5 7,2 39 21 - - WNW 1000,0 9
07.12.2018 15:00:00 10,2 8,2 41 22 65 35 WZW 999,2 3,5

tt = temperatuur
td = dauwpunt
ff = windsnelheid
fx = windstoten
dd = windrichting
ppp = luchtdruk
vv = zicht

Weerstations in de omgeving